Location: Aulus
(42.7909°N, 1.3399°E)
Time: 06:32:42
(UTC+00:00)

Cosmos 1076 Rocket - Pass Details

Date: 19 May 2025
Orbit: 583 x 604 km, 82.5° (Epoch: 18 June)

Event Time Altitude Azimuth Distance (km) Brightness Sun altitude
Rises 20:29:57 0° 351° (N) 2,866 7.9 -12.0°
Reaches altitude 10° 20:32:10 10° 352° (N) 1,959 6.9 -12.3°
Maximum altitude 20:36:30 90° 45° (NE) 610 3.5 -12.9°
Enters shadow 20:40:13 14° 173° (S) 1,697 5.4 -13.4°
